This is the latest recevied weather packets stored in our database for station/object KI4BIY. If no packets are shown the sender has not sent any weather packets the latest 10 day(s).
| Time | Temp. | Humidity | Pressure | Rain* | Wind** | Luminosity | Snow |
|---|---|---|---|---|---|---|---|
| 1777843470 | 22.78° C | 36% | 1015.9 hPa | 0 mm | - | 29 W/m² | - |
| 1777843167 | 22.78° C | 38% | 1015.9 hPa | 0 mm | - | 30 W/m² | - |
| 1777842864 | 22.22° C | 39% | 1016.2 hPa | 0 mm | - | 30 W/m² | - |
| 1777842559 | 22.22° C | 37% | 1016.3 hPa | 0 mm | - | 31 W/m² | - |
| 1777842256 | 22.22° C | 36% | 1016.3 hPa | 0 mm | - | 32 W/m² | - |
| 1777841956 | 22.22° C | 40% | 1016.4 hPa | 0 mm | - | 33 W/m² | - |
| 1777841654 | 22.78° C | 38% | 1016.6 hPa | 0 mm | - | 34 W/m² | - |
| 1777841350 | 22.78° C | 35% | 1016.5 hPa | 0 mm | - | 34 W/m² | - |
| 1777841047 | 22.78° C | 37% | 1016.6 hPa | 0 mm | - | 35 W/m² | - |
| 1777840744 | 22.22° C | 38% | 1016.6 hPa | 0 mm | - | 36 W/m² | - |
| 1777840442 | 22.78° C | 37% | 1016.9 hPa | 0 mm | - | 525 W/m² | - |
| 1777840138 | 22.78° C | 36% | 1016.9 hPa | 0 mm | - | 186 W/m² | - |
| 1777839837 | 22.78° C | 37% | 1017.2 hPa | 0 mm | - | 231 W/m² | - |
| 1777839535 | 23.33° C | 37% | 1017.1 hPa | 0 mm | - | 161 W/m² | - |
| 1777839231 | 22.78° C | 38% | 1017.3 hPa | 0 mm | - | 534 W/m² | - |
| 1777838929 | 22.78° C | 36% | 1016.9 hPa | 0 mm | - | 571 W/m² | - |
| 1777838624 | 22.78° C | 35% | 1017.5 hPa | 0 mm | - | 574 W/m² | - |
| 1777838322 | 22.78° C | 35% | 1017.6 hPa | 0 mm | - | 524 W/m² | - |
| 1777838018 | 22.78° C | 38% | 1017.7 hPa | 0 mm | - | 615 W/m² | - |
| 1777837716 | 22.22° C | 37% | 1017.9 hPa | 0 mm | - | 612 W/m² | - |
| 1777837412 | 22.22° C | 36% | 1017.9 hPa | 0 mm | - | 631 W/m² | - |
| 1777837108 | 22.78° C | 39% | 1018.1 hPa | 0 mm | - | 580 W/m² | - |
| 1777836804 | 22.78° C | 38% | 1018.1 hPa | 0 mm | - | 601 W/m² | - |
| 1777836500 | 22.78° C | 38% | 1018.1 hPa | 0 mm | - | 643 W/m² | - |
| 1777836196 | 22.78° C | 34% | 1017.9 hPa | 0 mm | - | 646 W/m² | - |
* Rain latest hour (hover to see other rain measurements)
** Current wind speed in m/s (hover to see current wind gust speed)